Location: Unspecified
(0.0000°N, 0.0000°E)
Time: 20:13:00
(UTC+00:00)

Hubble Space Telescope - Visible Passes

Search period start: 03 October 2023 00:00
Search period end: 13 October 2023 00:00
Orbit: 521 x 525 km, 28.5° (Epoch: 03 October)

Date Brightness Start Highest point End Pass type
(mag) Time Alt. Az. Time Alt. Az. Time Alt. Az.
03 Oct 0.7 05:02:05 14° WNW 05:05:28 86° NNE 05:09:31 10° ESE visible
03 Oct 3.3 18:36:34 10° WNW 18:38:37 14° NNW 18:40:40 10° N visible
04 Oct 0.6 04:47:52 27° WNW 04:49:55 72° SSW 04:53:57 10° SE visible
04 Oct 3.5 18:22:11 10° NW 18:23:07 11° NNW 18:24:02 10° NNW visible
05 Oct 0.9 04:33:37 45° WSW 04:34:21 53° SSW 04:38:18 10° SE visible
06 Oct 1.5 04:19:18 38° S 04:19:18 38° S 04:22:35 10° SE visible
07 Oct 2.6 04:04:54 22° SSE 04:04:54 22° SSE 04:06:48 10° SSE visible
08 Oct 3.4 03:50:25 12° SSE 03:50:25 12° SSE 03:50:55 10° SSE visible
